FW9917 Weather Reports


Display with metric or nautical units.
time (UTC)temp
F
wind
direction
speed
MPH
gust
MPH
rain 1hr
in
rain 24hr
in
rain mn
in
humidity
%
barometer
mb
20260504110559 40 0 0.0 0.0 0.00 0.11 0.00 93 1014.1
20260504110303 40 0 0.0 0.0 0.00 0.11 0.00 93 1014.1
20260504100556 39 0 0.0 0.0 0.00 0.11 0.00 94 1014.2
20260504090104 40 0 0.0 0.0 0.00 0.11 0.00 93 1014.6
20260504081557 40 0 0.0 0.0 0.00 0.11 0.00 93 1015.1
20260504081057 40 0 0.0 0.0 0.00 0.11 0.00 93 1015.1
20260504080600 40 0 0.0 0.0 0.00 0.11 0.00 93 1015.1
20260504050556 40 0 0.0 3.0 0.00 0.11 0.11 92 1015.3
20260504050106 40 0 0.0 3.0 0.00 0.11 0.11 92 1015.3
20260504045556 40 0 0.0 0.0 0.00 0.11 0.11 92 1015.4
20260504045056 40 0 0.0 0.0 0.00 0.11 0.11 91 1015.4
20260504044605 40 0 0.0 2.0 0.00 0.11 0.11 92 1015.5
20260504044057 40 0 0.0 2.0 0.00 0.11 0.11 91 1015.4
20260504043558 40 88 0.0 2.0 0.00 0.11 0.11 91 1015.4
20260504043059 40 84 0.0 1.0 0.00 0.11 0.11 91 1015.4
20260504042557 41 0 0.0 1.0 0.00 0.11 0.11 92 1015.4
20260504042056 41 0 0.0 1.0 0.00 0.11 0.11 92 1015.4
20260504041556 41 0 0.0 1.0 0.00 0.11 0.11 92 1015.3
20260504041056 41 0 0.0 2.0 0.00 0.11 0.11 91 1015.3
20260504040556 41 0 0.0 2.0 0.00 0.11 0.11 92 1015.3
20260504040117 41 0 0.0 1.0 0.00 0.11 0.11 91 1015.2
20260504035556 41 0 0.0 2.0 0.00 0.11 0.11 91 1015.1
20260504035056 41 0 0.0 2.0 0.00 0.11 0.11 91 1015.1
20260504034622 41 0 0.0 1.0 0.00 0.11 0.11 91 1015.0
20260504034056 42 115 0.0 1.0 0.00 0.11 0.11 90 1015.1
20260504033557 42 0 0.0 1.0 0.00 0.11 0.11 91 1015.0
20260504033057 42 0 0.0 1.0 0.00 0.11 0.11 91 1015.1
20260504032557 42 0 0.0 1.0 0.00 0.11 0.11 91 1015.2
20260504032056 43 0 0.0 1.0 0.00 0.11 0.11 91 1014.9
20260504031558 43 0 0.0 1.0 0.00 0.11 0.11 91 1014.9
20260504031056 43 115 0.0 1.0 0.00 0.11 0.11 90 1014.9
20260504030556 43 0 0.0 1.0 0.00 0.11 0.11 89 1014.8
20260504030120 43 0 0.0 1.0 0.00 0.11 0.11 90 1014.9
20260504025556 43 0 0.0 1.0 0.00 0.11 0.11 90 1015.0
20260504025057 43 0 0.0 1.0 0.00 0.11 0.11 90 1015.0
20260504024602 43 0 0.0 2.0 0.00 0.11 0.11 90 1014.9
20260504024056 43 0 0.0 2.0 0.00 0.11 0.11 89 1014.8
20260504023557 44 0 0.0 2.0 0.00 0.11 0.11 89 1014.7
20260504023100 44 0 0.0 1.0 0.00 0.11 0.11 89 1014.6
20260504022554 44 0 0.0 1.0 0.00 0.11 0.11 88 1014.8
20260504022056 45 0 0.0 1.0 0.00 0.11 0.11 88 1015.0
20260504021557 45 0 0.0 1.0 0.00 0.11 0.11 89 1015.1
20260504021059 45 0 0.0 0.0 0.00 0.11 0.11 88 1015.2
20260504020556 45 0 0.0 0.0 0.00 0.11 0.11 87 1015.2
20260504020107 45 0 0.0 0.0 0.00 0.11 0.11 87 1015.2
20260504015557 45 0 0.0 0.0 0.00 0.11 0.11 86 1015.1
20260504015057 46 0 0.0 0.0 0.00 0.11 0.11 86 1015.2
20260504014608 46 0 0.0 0.0 0.00 0.11 0.11 86 1015.2
20260504014056 46 0 0.0 0.0 0.00 0.11 0.11 87 1015.2
20260504013556 46 0 0.0 0.0 0.00 0.11 0.11 86 1015.1
20260504013058 46 0 0.0 0.0 0.00 0.11 0.11 86 1015.1
20260504012556 46 0 0.0 0.0 0.00 0.11 0.11 84 1015.1
20260504012057 46 0 0.0 1.0 0.00 0.11 0.11 87 1015.0
20260504011557 46 0 0.0 1.0 0.00 0.11 0.11 86 1015.1
20260504011056 45 0 0.0 1.0 0.00 0.11 0.11 89 1015.2
20260504010556 45 0 0.0 1.0 0.00 0.11 0.11 88 1015.1
20260504010059 45 0 0.0 1.0 0.00 0.11 0.11 87 1015.1
20260504005557 45 0 0.0 1.0 0.00 0.11 0.11 84 1015.1
20260504005100 45 0 0.0 0.0 0.00 0.11 0.11 85 1015.2
20260504004606 45 0 0.0 2.0 0.00 0.11 0.11 87 1015.1
20260504004057 45 0 0.0 2.0 0.00 0.11 0.11 87 1015.0
20260504003557 45 0 0.0 2.0 0.00 0.11 0.11 88 1015.2
20260504003056 45 0 0.0 2.0 0.01 0.11 0.11 88 1014.9
20260504002556 45 0 0.0 1.0 0.01 0.11 0.11 90 1015.0
20260504002056 44 0 0.0 1.0 0.01 0.11 0.11 88 1015.2
20260504001606 44 0 0.0 1.0 0.01 0.11 0.11 89 1015.2
20260504001056 44 0 0.0 1.0 0.01 0.11 0.11 90 1015.2
20260504000556 44 0 0.0 2.0 0.01 0.11 0.11 91 1015.2
20260504000059 43 147 0.0 2.0 0.01 0.11 0.11 91 1015.3
20260503235557 43 148 0.0 2.0 0.01 0.11 0.11 91 1015.4
20260503235058 43 0 0.0 0.0 0.01 0.11 0.11 89 1015.6
20260503234555 43 0 0.0 0.0 0.01 0.11 0.11 90 1016.0
20260503234057 43 0 0.0 0.0 0.01 0.11 0.11 90 1016.3
20260503233557 43 0 0.0 0.0 0.01 0.11 0.11 90 1016.4
20260503233103 43 0 0.0 0.0 0.01 0.10 0.10 91 1016.5
20260503232558 43 0 0.0 1.0 0.01 0.10 0.10 91 1016.8
20260503232056 43 0 0.0 1.0 0.02 0.10 0.10 92 1016.9
20260503231559 43 0 0.0 1.0 0.03 0.10 0.10 91 1017.0
20260503231057 43 0 0.0 2.0 0.04 0.10 0.10 91 1016.8
20260503230556 42 0 0.0 2.0 0.05 0.10 0.10 90 1016.9
20260503225557 42 0 0.0 1.0 0.06 0.10 0.10 89 1017.0
20260503225100 42 0 0.0 4.0 0.07 0.10 0.10 90 1017.0
20260503224559 42 0 0.0 5.0 0.07 0.10 0.10 90 1016.8
20260503224058 42 0 2.0 5.0 0.08 0.10 0.10 88 1016.5
20260503223557 42 336 1.0 8.0 0.10 0.10 0.10 88 1016.9
20260503223058 42 0 1.0 8.0 0.09 0.09 0.09 88 1016.7
20260503222556 43 347 2.0 6.0 0.09 0.09 0.09 87 1017.0
20260503222056 43 250 0.0 4.0 0.08 0.08 0.08 87 1017.2
20260503221559 43 0 0.0 5.0 0.07 0.07 0.07 85 1017.4
20260503221058 43 63 1.0 5.0 0.06 0.06 0.06 84 1017.4
20260503220558 44 336 0.0 5.0 0.05 0.05 0.05 85 1017.3
20260503220057 44 0 1.0 5.0 0.04 0.04 0.04 83 1017.0
20260503215556 44 0 1.0 5.0 0.04 0.04 0.04 80 1017.0
20260503215056 45 0 0.0 4.0 0.03 0.03 0.03 79 1017.0
20260503214603 46 117 1.0 7.0 0.03 0.03 0.03 74 1017.0
20260503214057 47 67 2.0 8.0 0.02 0.02 0.02 71 1016.8
20260503213556 48 352 1.0 12.0 0.00 0.00 0.00 67 1016.4
20260503213057 49 345 2.0 13.0 0.00 0.00 0.00 63 1016.4
20260503212557 50 19 4.0 13.0 0.00 0.00 0.00 60 1016.1
20260503212057 50 22 3.0 12.0 0.00 0.00 0.00 63 1015.7
20260503211556 51 16 6.0 14.0 0.00 0.00 0.00 62 1015.6
20260503211058 51 15 5.0 14.0 0.00 0.00 0.00 60 1015.6
20260503210556 51 15 4.0 16.0 0.00 0.00 0.00 62 1015.5
20260503210055 51 9 3.0 16.0 0.00 0.00 0.00 66 1015.4
20260503205556 51 223 4.0 12.0 0.00 0.00 0.00 59 1015.4
20260503205057 53 22 4.0 16.0 0.00 0.00 0.00 59 1015.2
20260503204603 54 15 7.0 16.0 0.00 0.00 0.00 57 1015.1
20260503204057 56 16 5.0 14.0 0.00 0.00 0.00 59 1015.0
20260503203556 58 11 1.0 7.0 0.00 0.00 0.00 55 1014.6
20260503203059 59 13 2.0 7.0 0.00 0.00 0.00 50 1014.4
20260503202557 61 15 0.0 3.0 0.00 0.00 0.00 43 1014.3
20260503202059 61 13 1.0 3.0 0.00 0.00 0.00 39 1014.1
20260503201558 62 0 1.0 3.0 0.00 0.00 0.00 39 1014.0
20260503201056 62 11 0.0 4.0 0.00 0.00 0.00 42 1013.9
20260503200558 62 16 0.0 5.0 0.00 0.00 0.00 40 1014.1
20260503200058 61 0 2.0 5.0 0.00 0.00 0.00 38 1013.9
20260503195556 61 14 2.0 7.0 0.00 0.00 0.00 38 1014.0
20260503195056 61 11 1.0 8.0 0.00 0.00 0.00 40 1014.1
20260503194554 60 11 1.0 8.0 0.00 0.00 0.00 41 1014.0
20260503194058 61 13 2.0 7.0 0.00 0.00 0.00 38 1014.2
20260503193556 61 11 2.0 7.0 0.00 0.00 0.00 39 1014.2
20260503193111 61 12 1.0 5.0 0.00 0.00 0.00 42 1014.3
20260503192556 61 11 2.0 7.0 0.00 0.00 0.00 40 1014.2
20260503192057 60 12 0.0 7.0 0.00 0.00 0.00 42 1014.3
20260503191600 60 13 1.0 8.0 0.00 0.00 0.00 43 1014.4
20260503191057 60 9 2.0 8.0 0.00 0.00 0.00 42 1014.5
20260503190557 60 12 1.0 7.0 0.00 0.00 0.00 43 1014.6
20260503190107 59 0 2.0 7.0 0.00 0.00 0.00 45 1014.6
20260503185556 60 16 1.0 4.0 0.00 0.00 0.00 43 1014.6
20260503185056 59 10 1.0 4.0 0.00 0.00 0.00 43 1014.6
20260503184601 59 12 2.0 4.0 0.00 0.00 0.00 45 1014.8
20260503184057 59 11 1.0 5.0 0.00 0.00 0.00 44 1014.8
20260503183557 59 12 2.0 8.0 0.00 0.00 0.00 44 1014.9
20260503183109 59 13 2.0 8.0 0.00 0.00 0.00 42 1014.9
20260503182557 59 11 1.0 5.0 0.00 0.00 0.00 42 1014.9
20260503182057 59 10 2.0 5.0 0.00 0.00 0.00 42 1015.0
20260503181555 59 0 2.0 5.0 0.00 0.00 0.00 42 1015.1
20260503181057 59 10 2.0 9.0 0.00 0.00 0.00 42 1014.9
20260503180600 59 9 2.0 9.0 0.00 0.00 0.00 42 1015.0
20260503175556 59 15 1.0 7.0 0.00 0.00 0.00 45 1015.0
20260503175056 59 11 2.0 7.0 0.00 0.00 0.00 44 1015.1
20260503174556 58 13 2.0 7.0 0.00 0.00 0.00 45 1015.1
20260503174100 57 11 1.0 10.0 0.00 0.00 0.00 45 1015.1
20260503173559 57 12 1.0 10.0 0.00 0.00 0.00 44 1015.1
20260503173112 57 10 1.0 9.0 0.00 0.00 0.00 48 1015.0
20260503172556 56 13 2.0 10.0 0.00 0.00 0.00 47 1015.1
20260503172100 56 11 3.0 10.0 0.00 0.00 0.00 46 1015.0
20260503171557 56 11 2.0 7.0 0.00 0.00 0.00 47 1015.1
20260503171057 56 13 1.0 7.0 0.00 0.00 0.00 47 1015.0
20260503170558 56 9 2.0 7.0 0.00 0.00 0.00 47 1015.1
20260503150556 51 13 0.0 3.0 0.00 0.00 0.00 58 1015.6
20260503150110 51 0 1.0 6.0 0.00 0.00 0.00 59 1015.6
20260503140118 44 0 0.0 2.0 0.00 0.00 0.00 75 1015.7
20260503131056 44 86 0.0 2.0 0.00 0.00 0.00 80 1015.6
20260503130556 44 0 0.0 2.0 0.00 0.00 0.00 80 1015.5
20260503130109 44 0 0.0 2.0 0.00 0.00 0.00 80 1015.6